N6OIL Weather Reports


Display with metric or nautical units.
time (UTC)temp
F
wind
direction
speed
MPH
gust
MPH
rain 1hr
in
rain 24hr
in
rain mn
in
humidity
%
barometer
mb
20260508141704 69 358 4.0 9.0 0.00 0.00 0.00 32 1017.1
20260508141204 68 358 4.0 9.0 0.00 0.00 0.00 32 1017.0
20260508140704 67 358 4.0 8.0 0.00 0.00 0.00 31 1017.0
20260508140204 66 358 4.0 8.0 0.00 0.00 0.00 30 1017.0
20260508135705 65 3 4.0 8.0 0.00 0.00 0.00 29 1016.8
20260508135204 65 3 4.0 8.0 0.00 0.00 0.00 30 1016.8
20260508134704 64 3 4.0 5.0 0.00 0.00 0.00 30 1016.7
20260508133706 62 3 4.0 5.0 0.00 0.00 0.00 32 1016.7
20260508133204 61 3 4.0 5.0 0.00 0.00 0.00 31 1016.6
20260508132705 61 3 3.0 5.0 0.00 0.00 0.00 32 1016.6
20260508132205 61 7 3.0 5.0 0.00 0.00 0.00 32 1016.6
20260508131206 61 7 3.0 5.0 0.00 0.00 0.00 32 1016.5
20260508130704 61 7 3.0 5.0 0.00 0.00 0.00 31 1016.4
20260508130204 61 7 3.0 5.0 0.00 0.00 0.00 31 1016.4
20260508125704 61 7 4.0 5.0 0.00 0.00 0.00 30 1016.4
20260508124704 61 7 4.0 5.0 0.00 0.00 0.00 30 1016.3
20260508124204 61 7 4.0 5.0 0.00 0.00 0.00 30 1016.3
20260508123704 61 7 4.0 5.0 0.00 0.00 0.00 29 1016.2
20260508122706 61 7 3.0 5.0 0.00 0.00 0.00 29 1016.1
20260508122204 62 7 4.0 5.0 0.00 0.00 0.00 29 1016.1
20260508121704 62 8 4.0 7.0 0.00 0.00 0.00 29 1016.1
20260508121204 62 7 4.0 7.0 0.00 0.00 0.00 28 1016.1
20260508120206 62 8 4.0 7.0 0.00 0.00 0.00 30 1016.1
20260508115704 61 3 4.0 6.0 0.00 0.00 0.00 29 1016.0
20260508115204 62 3 4.0 7.0 0.00 0.00 0.00 29 1016.0
20260508114704 62 3 4.0 8.0 0.00 0.00 0.00 28 1015.9
20260508114204 62 3 5.0 8.0 0.00 0.00 0.00 28 1016.0
20260508113705 62 3 5.0 8.0 0.00 0.00 0.00 28 1016.0
20260508113205 63 13 5.0 8.0 0.00 0.00 0.00 28 1016.0
20260508112704 62 15 5.0 8.0 0.00 0.00 0.00 28 1016.0
20260508111205 63 15 4.0 7.0 0.00 0.00 0.00 28 1016.1
20260508110705 64 17 4.0 5.0 0.00 0.00 0.00 29 1016.0
20260508110204 64 17 4.0 7.0 0.00 0.00 0.00 29 1016.1
20260508105204 65 19 4.0 9.0 0.00 0.00 0.00 28 1016.1
20260508104704 66 23 4.0 9.0 0.00 0.00 0.00 28 1016.1
20260508104204 66 31 4.0 10.0 0.00 0.00 0.00 29 1016.1
20260508103704 66 38 5.0 10.0 0.00 0.00 0.00 28 1016.1
20260508103204 66 30 5.0 9.0 0.00 0.00 0.00 29 1016.1
20260508102704 66 33 5.0 9.0 0.00 0.00 0.00 29 1016.2
20260508102204 66 36 5.0 9.0 0.00 0.00 0.00 29 1016.1
20260508101705 66 30 4.0 6.0 0.00 0.00 0.00 29 1016.2
20260508101204 65 33 4.0 6.0 0.00 0.00 0.00 29 1016.1
20260508100704 66 38 3.0 6.0 0.00 0.00 0.00 29 1016.1
20260508100205 66 34 3.0 6.0 0.00 0.00 0.00 29 1016.1
20260508095704 66 36 3.0 5.0 0.00 0.00 0.00 29 1016.1
20260508095204 66 43 4.0 6.0 0.00 0.00 0.00 29 1016.1
20260508094704 66 38 4.0 6.0 0.00 0.00 0.00 29 1016.1
20260508094204 66 36 3.0 6.0 0.00 0.00 0.00 29 1016.1
20260508093704 66 34 4.0 5.0 0.00 0.00 0.00 29 1016.2
20260508093204 66 47 4.0 7.0 0.00 0.00 0.00 30 1016.2
20260508092704 66 47 4.0 7.0 0.00 0.00 0.00 29 1016.2
20260508092204 66 45 4.0 7.0 0.00 0.00 0.00 30 1016.2
20260508091704 66 42 4.0 6.0 0.00 0.00 0.00 30 1016.2
20260508091205 66 54 4.0 8.0 0.00 0.00 0.00 30 1016.2
20260508090704 66 56 4.0 8.0 0.00 0.00 0.00 30 1016.2
20260508085705 67 35 5.0 10.0 0.00 0.00 0.00 29 1016.3
20260508085204 67 44 5.0 8.0 0.00 0.00 0.00 29 1016.3
20260508084704 67 57 4.0 8.0 0.00 0.00 0.00 29 1016.3
20260508084204 67 49 4.0 8.0 0.00 0.00 0.00 29 1016.4
20260508083704 67 49 4.0 8.0 0.00 0.00 0.00 29 1016.5
20260508083204 67 46 4.0 8.0 0.00 0.00 0.00 29 1016.5
20260508082704 67 49 4.0 7.0 0.00 0.00 0.00 29 1016.5
20260508082204 67 47 4.0 7.0 0.00 0.00 0.00 29 1016.5
20260508081704 67 46 4.0 6.0 0.00 0.00 0.00 29 1016.6
20260508081204 67 46 4.0 7.0 0.00 0.00 0.00 28 1016.6
20260508080705 68 44 4.0 7.0 0.00 0.00 0.00 28 1016.7
20260508075704 68 48 4.0 9.0 0.00 0.00 0.00 29 1016.7
20260508075204 68 49 5.0 9.0 0.00 0.00 0.00 29 1016.7
20260508074704 68 37 5.0 9.0 0.00 0.00 0.00 29 1016.7
20260508073704 68 27 4.0 9.0 0.00 0.00 0.00 30 1016.8
20260508072704 69 35 5.0 9.0 0.00 0.00 0.00 30 1016.7
20260508071704 69 48 4.0 8.0 0.00 0.00 0.00 31 1016.7
20260508071204 69 46 5.0 9.0 0.00 0.00 0.00 31 1016.8
20260508070704 69 47 5.0 9.0 0.00 0.00 0.00 30 1016.8
20260508070205 69 56 5.0 9.0 0.00 0.00 0.00 30 1016.8
20260508065704 69 49 5.0 9.0 0.00 0.00 0.00 30 1016.8
20260508065204 69 46 5.0 9.0 0.00 0.00 0.00 30 1016.8
20260508064704 69 34 5.0 10.0 0.00 0.00 0.00 29 1017.0
20260508064204 69 55 5.0 10.0 0.00 0.00 0.00 30 1016.8
20260508063705 69 44 4.0 7.0 0.00 0.00 0.00 31 1016.8
20260508063206 69 48 3.0 9.0 0.00 0.00 0.00 31 1016.8
20260508062704 69 49 4.0 9.0 0.00 0.00 0.00 31 1016.8
20260508062204 69 46 4.0 7.0 0.00 0.00 0.00 30 1016.8
20260508061705 69 44 4.0 6.0 0.00 0.00 0.00 31 1016.8
20260508061204 69 44 4.0 6.0 0.00 0.00 0.00 31 1016.7
20260508060705 69 46 4.0 6.0 0.00 0.00 0.00 31 1016.7
20260508055705 69 42 4.0 7.0 0.00 0.00 0.00 31 1016.8
20260508055206 69 51 4.0 7.0 0.00 0.00 0.00 30 1016.8
20260508054704 70 38 4.0 9.0 0.00 0.00 0.00 30 1016.7
20260508054204 70 71 5.0 9.0 0.00 0.00 0.00 31 1016.8
20260508053704 70 42 5.0 11.0 0.00 0.00 0.00 31 1016.8
20260508052705 70 44 6.0 13.0 0.00 0.00 0.00 32 1016.8
20260508052204 71 30 6.0 13.0 0.00 0.00 0.00 32 1016.8
20260508051704 71 41 6.0 13.0 0.00 0.00 0.00 32 1016.8
20260508050204 71 50 6.0 11.0 0.00 0.00 0.00 32 1016.7
20260508045704 71 51 5.0 11.0 0.00 0.00 0.00 33 1016.8
20260508045205 71 47 5.0 11.0 0.00 0.00 0.00 33 1016.8
20260508044704 71 53 5.0 11.0 0.00 0.00 0.00 33 1016.8
20260508044204 71 37 5.0 10.0 0.00 0.00 0.00 33 1016.8
20260508043704 72 57 6.0 11.0 0.00 0.00 0.00 33 1016.7
20260508043204 72 59 5.0 11.0 0.00 0.00 0.00 32 1016.7
20260508042204 72 47 4.0 10.0 0.00 0.00 0.00 33 1016.6
20260508041703 72 48 4.0 9.0 0.00 0.00 0.00 33 1016.5
20260508041204 72 61 4.0 6.0 0.00 0.00 0.00 32 1016.4
20260508040704 72 51 3.0 6.0 0.00 0.00 0.00 32 1016.5
20260508040206 73 48 3.0 7.0 0.00 0.00 0.00 32 1016.4
20260508035704 73 44 3.0 11.0 0.00 0.00 0.00 32 1016.4
20260508034704 74 53 6.0 11.0 0.00 0.00 0.00 31 1016.2
20260508034205 74 79 5.0 11.0 0.00 0.00 0.00 30 1016.2
20260508033704 74 63 5.0 13.0 0.00 0.00 0.00 30 1016.1
20260508033204 75 48 6.0 13.0 0.00 0.00 0.00 30 1016.1
20260508031704 76 358 5.0 12.0 0.00 0.00 0.00 29 1015.9
20260508031204 76 358 6.0 12.0 0.00 0.00 0.00 29 1015.7
20260508030704 76 358 7.0 16.0 0.00 0.00 0.00 28 1015.6
20260508030204 76 358 7.0 16.0 0.00 0.00 0.00 28 1015.6
20260508024704 77 358 8.0 15.0 0.00 0.00 0.00 27 1015.4
20260508024204 77 358 8.0 13.0 0.00 0.00 0.00 27 1015.3
20260508023704 78 358 7.0 14.0 0.00 0.00 0.00 27 1015.3
20260508023205 78 69 7.0 15.0 0.00 0.00 0.00 26 1015.3
20260508022704 78 358 8.0 15.0 0.00 0.00 0.00 26 1015.2
20260508022204 79 77 8.0 15.0 0.00 0.00 0.00 25 1015.2
20260508021704 79 358 9.0 15.0 0.00 0.00 0.00 25 1015.1
20260508021204 79 358 10.0 16.0 0.00 0.00 0.00 25 1015.1
20260508020705 79 67 9.0 17.0 0.00 0.00 0.00 25 1015.1
20260508020204 80 51 9.0 18.0 0.00 0.00 0.00 24 1015.1
20260508015704 80 60 10.0 18.0 0.00 0.00 0.00 24 1015.1
20260508015204 80 76 9.0 18.0 0.00 0.00 0.00 24 1015.1
20260508014705 81 358 8.0 17.0 0.00 0.00 0.00 24 1015.1
20260508013204 82 358 8.0 17.0 0.00 0.00 0.00 22 1015.0
20260508012205 83 68 9.0 22.0 0.00 0.00 0.00 22 1014.9
20260508011704 83 358 10.0 22.0 0.00 0.00 0.00 22 1014.9
20260508011204 83 108 10.0 22.0 0.00 0.00 0.00 21 1014.7
20260508010709 83 50 11.0 22.0 0.00 0.00 0.00 21 1014.7
20260508010204 84 81 12.0 22.0 0.00 0.00 0.00 21 1014.6
20260508005704 84 89 12.0 23.0 0.00 0.00 0.00 21 1014.6
20260508004704 85 88 11.0 23.0 0.00 0.00 0.00 21 1014.6
20260508004204 85 86 10.0 20.0 0.00 0.00 0.00 21 1014.5
20260508003704 85 56 9.0 17.0 0.00 0.00 0.00 20 1014.5
20260508003204 86 92 8.0 17.0 0.00 0.00 0.00 20 1014.5
20260508002704 86 76 9.0 20.0 0.00 0.00 0.00 20 1014.5
20260508002204 86 72 9.0 20.0 0.00 0.00 0.00 20 1014.5
20260508001704 87 97 9.0 20.0 0.00 0.00 0.00 19 1014.5
20260508001204 87 79 8.0 17.0 0.00 0.00 0.00 19 1014.4
20260508000205 87 35 4.0 18.0 0.00 0.00 0.00 12 1014.4
20260507235704 88 73 6.0 18.0 0.00 0.00 0.00 11 1014.5
20260507235204 87 80 10.0 16.0 0.00 0.00 0.00 12 1014.6
20260507234704 87 59 9.0 12.0 0.00 0.00 0.00 12 1014.5
20260507234204 87 91 6.0 14.0 0.00 0.00 0.00 12 1014.6
20260507233704 87 106 6.0 18.0 0.00 0.00 0.00 12 1014.5
20260507232704 88 148 9.0 18.0 0.00 0.00 0.00 12 1014.5
20260507232204 88 100 7.0 16.0 0.00 0.00 0.00 12 1014.5
20260507231704 87 165 5.0 9.0 0.00 0.00 0.00 13 1014.5
20260507231204 88 117 4.0 9.0 0.00 0.00 0.00 12 1014.6
20260507230705 88 115 3.0 14.0 0.00 0.00 0.00 11 1014.6
20260507225204 87 82 9.0 14.0 0.00 0.00 0.00 11 1014.9
20260507224705 87 142 8.0 14.0 0.00 0.00 0.00 11 1014.9
20260507224204 87 82 7.0 12.0 0.00 0.00 0.00 11 1014.9
20260507223704 88 148 5.0 13.0 0.00 0.00 0.00 11 1015.0
20260507223204 87 119 4.0 13.0 0.00 0.00 0.00 11 1015.0
20260507222704 87 30 5.0 13.0 0.00 0.00 0.00 11 1015.1
20260507222205 87 31 6.0 12.0 0.00 0.00 0.00 11 1015.2
20260507221705 88 28 4.0 13.0 0.00 0.00 0.00 11 1015.2
20260507221204 88 41 3.0 13.0 0.00 0.00 0.00 12 1015.3
20260507220704 88 76 5.0 13.0 0.00 0.00 0.00 11 1015.3
20260507220204 88 67 4.0 11.0 0.00 0.00 0.00 11 1015.4
20260507215705 87 96 4.0 11.0 0.00 0.00 0.00 11 1015.5
20260507215204 86 7 4.0 16.0 0.00 0.00 0.00 11 1015.5
20260507214204 86 38 6.0 16.0 0.00 0.00 0.00 12 1015.7
20260507213704 86 29 3.0 9.0 0.00 0.00 0.00 12 1015.7
20260507213204 86 248 3.0 13.0 0.00 0.00 0.00 13 1015.9
20260507212706 87 163 5.0 13.0 0.00 0.00 0.00 12 1016.0
20260507212204 86 126 7.0 14.0 0.00 0.00 0.00 13 1016.1
20260507211204 87 125 6.0 14.0 0.00 0.00 0.00 12 1016.1
20260507210704 87 99 6.0 14.0 0.00 0.00 0.00 12 1016.1
20260507210204 87 76 3.0 16.0 0.00 0.00 0.00 12 1016.2
20260507205704 87 23 4.0 16.0 0.00 0.00 0.00 12 1016.2
20260507205204 86 100 6.0 16.0 0.00 0.00 0.00 12 1016.3
20260507204704 87 105 7.0 13.0 0.00 0.00 0.00 12 1016.4
20260507204204 87 115 7.0 13.0 0.00 0.00 0.00 13 1016.4
20260507203204 87 111 4.0 11.0 0.00 0.00 0.00 13 1016.4
20260507202704 87 161 4.0 15.0 0.00 0.00 0.00 13 1016.5
20260507202204 87 165 4.0 15.0 0.00 0.00 0.00 13 1016.6
20260507201204 86 109 4.0 11.0 0.00 0.00 0.00 14 1016.6
20260507200204 85 39 4.0 11.0 0.00 0.00 0.00 15 1016.8
20260507195704 85 269 4.0 11.0 0.00 0.00 0.00 15 1017.0
20260507195204 85 80 3.0 11.0 0.00 0.00 0.00 15 1017.0
20260507194704 85 228 4.0 11.0 0.00 0.00 0.00 14 1017.0
20260507194204 85 179 5.0 11.0 0.00 0.00 0.00 16 1017.1
20260507193704 84 113 5.0 11.0 0.00 0.00 0.00 16 1017.1
20260507193204 85 82 5.0 11.0 0.00 0.00 0.00 16 1017.2
20260507192705 84 99 6.0 12.0 0.00 0.00 0.00 17 1017.2
20260507192204 84 111 5.0 12.0 0.00 0.00 0.00 17 1017.3
20260507191704 84 129 5.0 12.0 0.00 0.00 0.00 17 1017.3
20260507191205 84 111 5.0 11.0 0.00 0.00 0.00 16 1017.4
20260507190204 83 310 3.0 7.0 0.00 0.00 0.00 18 1017.5
20260507185704 83 88 3.0 8.0 0.00 0.00 0.00 17 1017.6
20260507185204 84 88 3.0 8.0 0.00 0.00 0.00 18 1017.7
20260507184705 83 136 4.0 10.0 0.00 0.00 0.00 19 1017.7
20260507184204 83 168 5.0 10.0 0.00 0.00 0.00 19 1017.8
20260507183704 83 146 5.0 10.0 0.00 0.00 0.00 20 1017.8
20260507183204 83 112 3.0 10.0 0.00 0.00 0.00 20 1018.0
20260507182704 82 301 3.0 10.0 0.00 0.00 0.00 20 1018.0
20260507182204 82 106 5.0 10.0 0.00 0.00 0.00 21 1018.1
20260507181704 82 95 4.0 8.0 0.00 0.00 0.00 20 1018.1
20260507181204 82 135 3.0 10.0 0.00 0.00 0.00 22 1018.1
20260507180704 81 130 4.0 10.0 0.00 0.00 0.00 22 1018.2
20260507180204 81 127 4.0 10.0 0.00 0.00 0.00 22 1018.2
20260507175704 81 122 3.0 10.0 0.00 0.00 0.00 22 1018.2
20260507175204 81 105 4.0 9.0 0.00 0.00 0.00 23 1018.2
20260507174205 80 149 4.0 9.0 0.00 0.00 0.00 23 1018.3
20260507173705 80 130 4.0 9.0 0.00 0.00 0.00 23 1018.2
20260507173204 80 89 4.0 10.0 0.00 0.00 0.00 22 1018.2
20260507172704 80 103 3.0 10.0 0.00 0.00 0.00 23 1018.2
20260507172204 79 121 4.0 10.0 0.00 0.00 0.00 23 1018.2
20260507171706 80 140 3.0 8.0 0.00 0.00 0.00 23 1018.3
20260507170204 78 96 3.0 8.0 0.00 0.00 0.00 25 1018.3
20260507165704 78 96 3.0 5.0 0.00 0.00 0.00 24 1018.3
20260507165204 77 348 3.0 5.0 0.00 0.00 0.00 25 1018.2
20260507164706 77 348 2.0 5.0 0.00 0.00 0.00 25 1018.2
20260507164204 76 346 1.0 5.0 0.00 0.00 0.00 26 1018.2
20260507163704 76 346 2.0 5.0 0.00 0.00 0.00 27 1018.3
20260507162204 74 340 2.0 4.0 0.00 0.00 0.00 27 1018.5
20260507161704 74 340 2.0 4.0 0.00 0.00 0.00 27 1018.5
20260507161204 75 340 2.0 4.0 0.00 0.00 0.00 26 1018.5
20260507160204 75 339 1.0 4.0 0.00 0.00 0.00 27 1018.5
20260507155704 74 339 2.0 3.0 0.00 0.00 0.00 28 1018.5
20260507154704 74 335 1.0 3.0 0.00 0.00 0.00 28 1018.6
20260507154204 73 335 1.0 3.0 0.00 0.00 0.00 29 1018.6
20260507153204 72 335 1.0 3.0 0.00 0.00 0.00 28 1018.6
20260507152705 72 335 1.0 4.0 0.00 0.00 0.00 30 1018.6
20260507152205 71 335 1.0 4.0 0.00 0.00 0.00 31 1018.6
20260507151704 70 335 2.0 4.0 0.00 0.00 0.00 32 1018.6
20260507151205 70 335 2.0 5.0 0.00 0.00 0.00 32 1018.6
20260507150704 69 335 3.0 5.0 0.00 0.00 0.00 32 1018.6
20260507150204 69 335 3.0 5.0 0.00 0.00 0.00 33 1018.5
20260507145705 68 338 3.0 5.0 0.00 0.00 0.00 33 1018.5
20260507145204 68 341 3.0 5.0 0.00 0.00 0.00 33 1018.5
20260507144704 67 343 2.0 5.0 0.00 0.00 0.00 34 1018.6
20260507144204 67 343 2.0 5.0 0.00 0.00 0.00 34 1018.6
20260507143704 66 353 2.0 4.0 0.00 0.00 0.00 35 1018.6
20260507143204 65 353 2.0 4.0 0.00 0.00 0.00 37 1018.5
20260507142704 64 353 2.0 4.0 0.00 0.00 0.00 39 1018.5
20260507142204 63 353 2.0 3.0 0.00 0.00 0.00 40 1018.4